[[{"header":{"parameterUnit":"m.s-1","parameterCategory":1,"la1":30.2991,"la2":30.254,"lo1":-89.0895,"lo2":-89.0444,"dy":0.0017,"dx":0.0017,"nx":28,"ny":28,"refTime":"2023-10-28T09:00:00:Z","depth":0,"parameterNumber":2,"parameterNumberName":"U-component_of_WINDS"},"data":[0,0,0,0,0,0,0,0,0,0,0,0,0,0,0,0,0,0,0,0,0,0,0,0,0,0,0,0,0,0,0,0,0,0,0,0,0,0,0,0,0,0,0,0,0,0,0,0,0,0,0,0,0,0,0,0,0,0,-2.505,-2.5051,0,-2.5092,-2.5093,-2.5093,-2.5041,-2.5039,-2.5037,-2.5035,-2.5079,-2.5082,-2.5084,0,0,0,0,0,0,0,0,0,0,0,0,0,-2.4927,-2.493,-2.505,-2.5051,-2.5051,-2.5092,-2.5093,-2.5093,-2.5041,-2.5039,-2.5036,-2.5034,-2.5078,-2.5081,-2.5085,0,0,0,0,0,0,0,0,0,0,0,0,0,-2.4976,-2.4931,-2.505,-2.503,-2.5029,-2.5092,-2.5093,-2.5094,-2.5042,-2.5039,-2.5036,-2.5033,-2.5077,-2.5081,-2.5085,-2.517,0,0,-2.5099,-2.5101,0,0,0,0,0,0,0,0,-2.4973,-2.4981,-2.5033,-2.5032,-2.503,-2.5058,-2.5065,-2.5119,-2.5042,-2.5037,-2.5035,-2.5032,-2.5074,-2.5079,-2.5093,-2.5172,-2.5174,-2.5099,-2.5102,-2.5104,-2.5105,0,0,0,0,0,0,0,-2.497,-2.4979,-2.5067,-2.5034,-2.5032,-2.502,-2.5024,-2.5075,-2.5071,-2.5037,-2.5033,-2.5039,-2.5073,-2.5089,-2.5094,-2.5175,-2.5099,-2.5103,-2.5106,-2.5107,-2.5328,-2.5331,0,0,0,0,0,0,-2.4969,-2.4976,-2.5066,-2.5068,-2.4994,-2.5024,-2.5029,-2.5052,-2.5071,-2.5071,-2.5041,-2.5036,-2.5083,-2.5088,-2.5095,-2.5196,-2.5104,-2.5108,-2.511,-2.5325,-2.5329,-2.5332,0,0,0,0,0,0,-2.4966,-2.4977,-2.5064,-2.5021,-2.5031,-2.503,-2.5057,-2.5055,-2.507,-2.5074,-2.5073,-2.5058,-2.5081,-2.5089,-2.5152,-2.5197,-2.511,-2.5114,-2.5321,-2.5326,-2.533,-2.5399,0,0,0,0,0,0,-2.4963,-2.4977,-2.5008,-2.5022,-2.5034,-2.512,-2.5059,-2.5058,-2.5078,-2.5072,-2.5089,-2.5089,-2.5079,-2.5146,-2.5157,-2.5202,-2.5117,-2.5317,-2.5323,-2.5329,-2.5393,-2.5406,-2.5417,0,0,0,0,0,-2.4959,-2.5026,-2.501,-2.5021,-2.5073,-2.5123,-2.5129,-2.5116,-2.5082,-2.5114,-2.5117,-2.5089,-2.5191,-2.5153,-2.5165,-2.5211,-2.5314,-2.5321,-2.5328,-2.5388,-2.5404,-2.5417,0,0,0,0,0,0,-2.5017,-2.5027,-2.501,-2.5083,-2.5103,-2.5114,-2.5154,-2.5133,-2.5162,-2.5155,-2.5137,-2.5142,-2.521,-2.5217,-2.5175,-2.5296,-2.5247,-2.5257,-2.5288,-2.5303,-2.5315,-2.5311,-2.5121,0,0,0,0,0,-2.5038,-2.5077,-2.5084,-2.5149,-2.5159,-2.5155,-2.5176,-2.5164,-2.5184,-2.5191,-2.5199,-2.5219,-2.5255,-2.528,-2.5314,-2.5395,-2.5398,-2.5433,-2.5445,-2.5455,-2.5463,-2.5508,-2.5523,-2.5356,-2.5356,-2.5356,0,0,-2.5082,-2.5093,-2.5118,-2.516,-2.5174,-2.5215,-2.5162,-2.5208,-2.5238,-2.5198,-2.5259,-2.5265,-2.5287,-2.536,-2.5392,-2.5368,-2.5511,-2.5464,-2.5472,-2.5475,-2.5517,-2.5533,-2.5547,-2.5361,-2.536,-2.5359,0,0,-2.5184,-2.5196,-2.5251,-2.5266,-2.5288,-2.5285,-2.5299,-2.5314,-2.5316,-2.5377,-2.5348,-2.5385,-2.5448,-2.5465,-2.5482,-2.5594,-2.5569,-2.5605,-2.5667,-2.5711,-2.5724,-2.5736,-2.5776,-2.579,-2.5614,-2.5614,-2.5614,0,-2.5236,-2.5297,-2.5282,-2.533,-2.535,-2.5317,-2.5373,-2.5389,-2.542,-2.5435,-2.5408,-2.5488,-2.55,-2.5577,-2.5604,-2.5619,-2.5634,-2.5602,-2.5723,-2.5735,-2.5745,-2.5783,-2.5799,-2.5618,-2.5618,-2.5617,-2.5617,0,-2.536,-2.5403,-2.5445,-2.5477,-2.5502,-2.5554,-2.5548,-2.5575,-2.5562,-2.5563,-2.5626,-2.564,-2.5676,-2.5694,-2.5682,-2.577,-2.5755,-2.5726,-2.5676,-2.5766,-2.5801,-2.5816,-2.5624,-2.5623,-2.5622,-2.562,0,0,-2.5497,-2.5522,-2.5537,-2.5552,-2.5575,-2.5608,-2.5659,-2.5695,-2.5719,-2.5743,-2.5786,-2.5842,-2.5816,-2.5835,-2.5825,-2.5864,-2.5952,-2.583,-2.583,-2.5852,-2.6051,-2.6072,-2.6089,-2.5937,-2.5939,-2.5942,-2.6049,0,-2.5599,-2.5687,-2.5676,-2.5761,-2.5801,-2.5772,-2.5817,-2.5836,-2.5839,-2.5874,-2.5877,-2.5917,-2.588,-2.5891,-2.5929,-2.5933,-2.5991,-2.5925,-2.5977,-2.5979,-2.5971,-2.6108,-2.6129,-2.623,-2.6063,-2.6066,-2.6067,0,-2.5728,-2.5757,-2.5846,-2.5864,-2.588,-2.5921,-2.5954,-2.5988,-2.601,-2.601,-2.6033,-2.6017,-2.607,-2.6021,-2.6094,-2.6049,-2.607,-2.6076,-2.608,-2.6083,-2.6028,-2.6114,-2.6262,-2.6277,-2.6089,-2.6087,-2.6086,0,-2.5819,-2.588,-2.5942,-2.5955,-2.5978,-2.6007,-2.6018,-2.6038,-2.6061,-2.609,-2.6105,-2.6141,-2.6161,-2.6189,-2.6183,-2.6148,-2.6259,-2.6209,-2.626,-2.626,-2.6283,-2.6282,-2.6436,-2.6299,-2.6298,-2.6298,-2.6298,0,-2.5932,-2.5988,-2.5983,-2.602,-2.6082,-2.6071,-2.6133,-2.614,-2.6159,-2.6198,-2.6175,-2.6213,-2.6203,-2.6241,-2.6237,-2.6299,-2.6308,-2.631,-2.6308,-2.6311,-2.6311,-2.6324,-2.6316,-2.6302,-2.6301,-2.63,-2.63,0,-2.6043,-2.6042,-2.6107,-2.6124,-2.6129,-2.6174,-2.6189,-2.6225,-2.6228,-2.6278,-2.6289,-2.6293,-2.6336,-2.6334,-2.6383,-2.6381,-2.6457,-2.6447,-2.6449,-2.6447,-2.6498,-2.6493,-2.6665,-2.6688,-2.6536,-2.6538,-2.6539,0,-2.6115,-2.6157,-2.6179,-2.6204,-2.6217,-2.6257,-2.6281,-2.6273,-2.6299,-2.6329,-2.6362,-2.6403,-2.6436,-2.6507,-2.6515,-2.6553,-2.6543,-2.6601,-2.6549,-2.6552,-2.6544,-2.6541,-2.6546,-2.6611,-2.6613,-2.6614,-2.6615,0,-2.6243,-2.6241,-2.6276,-2.6312,-2.6341,-2.6368,-2.6394,-2.6416,-2.641,-2.6441,-2.6485,-2.6511,-2.6562,-2.6604,-2.6641,-2.6653,-2.6634,-2.6632,-2.6646,-2.6649,-2.6648,-2.665,-2.6477,-2.6628,-2.6626,-2.6626,-2.6625,-2.6624,-2.6336,-2.6373,-2.6394,-2.6435,-2.6453,-2.6478,-2.6513,-2.6521,-2.6557,-2.6598,-2.6592,-2.6642,-2.6665,-2.6713,-2.6729,-2.6769,-2.6748,-2.6768,-2.6773,-2.6778,-2.6784,-2.6644,-2.6776,-2.6775,-2.6775,-2.6775,-2.6774,0,-2.6462,-2.6476,-2.6513,-2.655,-2.6582,-2.6562,-2.659,-2.6618,-2.6662,-2.6686,-2.6719,-2.6771,-2.6813,-2.6825,-2.6865,-2.6895,-2.6887,-2.6905,-2.6903,-2.6906,-2.68,-2.6784,-2.6911,-2.6911,-2.6911,-2.6911,-2.6911,-2.6911,-2.6532,-2.6593,-2.6594,-2.6665,-2.6678,-2.6727,-2.6744,-2.6768,-2.6787,-2.6846,-2.688,-2.6888,-2.6907,-2.6949,-2.6987,-2.699,-2.7005,-2.7027,-2.7027,-2.6927,-2.6913,-2.69,-2.6885,-2.7031,-2.7031,-2.7129,-2.713,-2.7131]},{"header":{"parameterUnit":"m.s-1","parameterCategory":1,"la1":30.2991,"la2":30.254,"lo1":-89.0895,"lo2":-89.0444,"dy":0.0017,"dx":0.0017,"nx":28,"ny":28,"refTime":"2023-10-28T09:00:00:Z","depth":0,"parameterNumber":3,"parameterNumberName":"V-component_of_WINDS"},"data":[0,0,0,0,0,0,0,0,0,0,0,0,0,0,0,0,0,0,0,0,0,0,0,0,0,0,0,0,0,0,0,0,0,0,0,0,0,0,0,0,0,0,0,0,0,0,0,0,0,0,0,0,0,0,0,0,0,0,0.641,0.6411,0,0.6435,0.6435,0.6436,0.6392,0.639,0.6389,0.6387,0.6415,0.6417,0.6419,0,0,0,0,0,0,0,0,0,0,0,0,0,0.633,0.6331,0.641,0.6411,0.6411,0.6435,0.6435,0.6436,0.6392,0.639,0.6388,0.6387,0.6414,0.6417,0.6419,0,0,0,0,0,0,0,0,0,0,0,0,0,0.6361,0.6332,0.641,0.6392,0.6391,0.6435,0.6435,0.6436,0.6392,0.639,0.6388,0.6386,0.6413,0.6416,0.6419,0.6483,0,0,0.6429,0.643,0,0,0,0,0,0,0,0,0.6359,0.6364,0.6394,0.6393,0.6392,0.6408,0.6417,0.6452,0.6393,0.6392,0.6387,0.6385,0.6414,0.6417,0.6427,0.6484,0.6486,0.6429,0.6431,0.6433,0.6433,0,0,0,0,0,0,0,0.6357,0.6362,0.642,0.6395,0.6393,0.6384,0.6386,0.6423,0.6415,0.6392,0.6389,0.6392,0.6413,0.6424,0.6427,0.6486,0.6429,0.6432,0.6434,0.6435,0.66,0.6602,0,0,0,0,0,0,0.6357,0.6361,0.6419,0.6421,0.637,0.6387,0.6389,0.6405,0.6415,0.6414,0.6394,0.639,0.642,0.6424,0.6428,0.6505,0.6433,0.6435,0.6437,0.6598,0.6601,0.6603,0,0,0,0,0,0,0.6355,0.6362,0.6418,0.639,0.6396,0.6391,0.6409,0.6407,0.6417,0.6416,0.6415,0.6406,0.6418,0.6424,0.647,0.6505,0.6437,0.644,0.6595,0.6598,0.6602,0.6658,0,0,0,0,0,0,0.6353,0.6362,0.6385,0.6391,0.6398,0.6459,0.6411,0.6409,0.6423,0.6418,0.6427,0.6427,0.6417,0.6466,0.6473,0.6508,0.6442,0.6591,0.6596,0.6601,0.6653,0.6663,0.6672,0,0,0,0,0,0.635,0.6399,0.6386,0.6393,0.6427,0.6461,0.6465,0.6452,0.6425,0.6449,0.6449,0.6426,0.65,0.6471,0.6479,0.6515,0.6589,0.6595,0.66,0.6649,0.6661,0.6672,0,0,0,0,0,0,0.6397,0.64,0.6385,0.6437,0.645,0.6454,0.6483,0.6465,0.6485,0.648,0.6464,0.6466,0.6517,0.6521,0.6488,0.6579,0.654,0.6548,0.6574,0.6586,0.6595,0.6593,0.6445,0,0,0,0,0,0.6414,0.6441,0.6442,0.6488,0.6495,0.6488,0.6503,0.6492,0.6504,0.6509,0.6512,0.6525,0.6552,0.6569,0.6593,0.6654,0.6656,0.6683,0.6692,0.67,0.6707,0.6742,0.6754,0.6622,0.6622,0.6621,0,0,0.6448,0.6453,0.6471,0.6498,0.6506,0.6536,0.6493,0.6525,0.6548,0.6514,0.6558,0.6562,0.6575,0.663,0.6654,0.6635,0.6744,0.6707,0.6713,0.6716,0.6749,0.6761,0.6772,0.6625,0.6625,0.6624,0,0,0.6526,0.6532,0.6572,0.6581,0.6594,0.659,0.66,0.6607,0.6608,0.6653,0.6629,0.6656,0.6701,0.6712,0.6724,0.681,0.6791,0.6819,0.6868,0.6902,0.6912,0.6922,0.6954,0.6965,0.6825,0.6826,0.6826,0,0.6568,0.661,0.6595,0.663,0.6644,0.6615,0.6657,0.6667,0.6687,0.6698,0.6676,0.6734,0.6741,0.6799,0.682,0.683,0.6842,0.6817,0.6912,0.6921,0.6929,0.696,0.6972,0.6829,0.6829,0.6828,0.6828,0,0.6661,0.6691,0.6723,0.6743,0.676,0.6798,0.6791,0.6811,0.6799,0.6798,0.6845,0.6853,0.6879,0.6892,0.6881,0.695,0.6938,0.6914,0.6875,0.6946,0.6974,0.6985,0.6834,0.6833,0.6832,0.6831,0,0,0.6767,0.6781,0.6793,0.6803,0.6816,0.684,0.6879,0.6904,0.6922,0.6938,0.6971,0.7011,0.699,0.7004,0.6994,0.7024,0.7094,0.6997,0.6997,0.7016,0.7172,0.719,0.7203,0.7081,0.7083,0.7085,0.7171,0,0.6846,0.691,0.69,0.6963,0.6992,0.6967,0.7001,0.7014,0.7014,0.704,0.7041,0.7071,0.704,0.7048,0.7077,0.7079,0.7125,0.7073,0.7113,0.7114,0.711,0.7218,0.7236,0.7317,0.7182,0.7184,0.7185,0,0.6945,0.6965,0.7031,0.7043,0.7054,0.7085,0.7109,0.7133,0.7149,0.7147,0.7164,0.715,0.719,0.7151,0.7207,0.7172,0.7188,0.7192,0.7195,0.7198,0.7154,0.7225,0.7342,0.7355,0.7202,0.7201,0.72,0,0.7017,0.7061,0.7107,0.7116,0.713,0.7152,0.716,0.7172,0.719,0.7211,0.7222,0.7249,0.7263,0.7285,0.7279,0.725,0.7337,0.7297,0.7338,0.7339,0.7357,0.7356,0.748,0.7367,0.7367,0.7367,0.7367,0,0.7106,0.7148,0.714,0.7168,0.7215,0.7204,0.7251,0.7255,0.7268,0.7298,0.7278,0.7307,0.7297,0.7326,0.7322,0.737,0.7377,0.7378,0.7377,0.738,0.738,0.739,0.7385,0.737,0.7369,0.7369,0.7368,0,0.7194,0.719,0.7239,0.7249,0.7253,0.7287,0.7296,0.7324,0.7324,0.7363,0.7371,0.7372,0.7405,0.7401,0.7438,0.7436,0.7496,0.7488,0.7491,0.7489,0.7531,0.7528,0.7666,0.7684,0.756,0.7561,0.7562,0,0.725,0.7282,0.7296,0.7315,0.7324,0.7354,0.7371,0.7362,0.7382,0.7404,0.7429,0.7461,0.7485,0.7541,0.7545,0.7574,0.7567,0.7613,0.7571,0.7574,0.7569,0.7567,0.7571,0.7621,0.7623,0.7624,0.7625,0,0.7352,0.7349,0.7375,0.7401,0.7423,0.7443,0.7461,0.7478,0.7471,0.7495,0.7529,0.7548,0.7587,0.7619,0.7648,0.7656,0.7641,0.7638,0.765,0.7654,0.7655,0.7656,0.7514,0.7635,0.7634,0.7633,0.7633,0.7632,0.7426,0.7455,0.7469,0.75,0.7513,0.7531,0.7558,0.7562,0.759,0.7621,0.7615,0.7654,0.7671,0.7707,0.7719,0.7751,0.7734,0.775,0.7754,0.7759,0.7764,0.765,0.7756,0.7755,0.7755,0.7755,0.7755,0,0.7528,0.7537,0.7565,0.7591,0.7616,0.7599,0.7619,0.7641,0.7676,0.7693,0.7718,0.7759,0.7791,0.7799,0.783,0.7854,0.7848,0.7863,0.7861,0.7864,0.7776,0.7764,0.7868,0.7868,0.7868,0.7868,0.7867,0.7867,0.7583,0.763,0.763,0.7685,0.7694,0.7731,0.7745,0.7762,0.7776,0.7823,0.7849,0.7854,0.7869,0.7901,0.7931,0.7933,0.7946,0.7964,0.7963,0.7881,0.787,0.7859,0.7847,0.7966,0.7967,0.8048,0.8048,0.8049]}]]